TimeCST,TemperatureF,Dew PointF,Humidity,Sea Level PressureIn,VisibilityMPH,Wind Direction,Wind SpeedMPH,Gust SpeedMPH,PrecipitationIn,Events,Conditions,WindDirDegrees,DateUTC
12:15 AM,31.8,28.6,88,30.27,10.0,WNW,6.9,-,N/A,,Clear,290,2013-11-07 06:15:00
12:35 AM,33.1,29.7,87,30.28,10.0,Calm,Calm,-,N/A,,Clear,0,2013-11-07 06:35:00
12:55 AM,33.3,29.1,85,30.28,10.0,Calm,Calm,-,N/A,,Clear,0,2013-11-07 06:55:00
1:15 AM,31.8,28.2,87,30.29,10.0,Calm,Calm,-,N/A,,Clear,0,2013-11-07 07:15:00
1:55 AM,31.1,27.9,88,30.30,10.0,Calm,Calm,-,N/A,,Clear,0,2013-11-07 07:55:00
2:15 AM,31.1,27.5,87,30.30,10.0,Calm,Calm,-,N/A,,Clear,0,2013-11-07 08:15:00
2:35 AM,32.0,27.9,85,30.30,10.0,Calm,Calm,-,N/A,,Clear,0,2013-11-07 08:35:00
2:55 AM,31.1,27.3,86,30.30,10.0,Calm,Calm,-,N/A,,Clear,0,2013-11-07 08:55:00
3:15 AM,30.7,27.0,86,30.30,10.0,Calm,Calm,-,N/A,,Clear,0,2013-11-07 09:15:00
3:35 AM,30.4,27.5,89,30.31,10.0,Calm,Calm,-,N/A,,Clear,0,2013-11-07 09:35:00
3:55 AM,30.7,28.2,90,30.31,10.0,Calm,Calm,-,N/A,,Clear,0,2013-11-07 09:55:00
4:15 AM,30.2,28.2,92,30.30,10.0,Calm,Calm,-,N/A,,Clear,0,2013-11-07 10:15:00
4:35 AM,30.0,28.4,94,30.30,10.0,Calm,Calm,-,N/A,,Clear,0,2013-11-07 10:35:00
4:55 AM,29.5,28.2,95,30.30,10.0,Calm,Calm,-,N/A,,Clear,0,2013-11-07 10:55:00
5:15 AM,29.7,28.4,95,30.31,10.0,Calm,Calm,-,N/A,,Clear,0,2013-11-07 11:15:00
5:35 AM,29.1,27.7,94,30.30,10.0,Calm,Calm,-,N/A,,Clear,0,2013-11-07 11:35:00
5:55 AM,29.5,27.7,93,30.32,10.0,Calm,Calm,-,N/A,,Clear,0,2013-11-07 11:55:00
6:15 AM,30.2,28.2,92,30.32,10.0,Calm,Calm,-,N/A,,Clear,0,2013-11-07 12:15:00
6:35 AM,30.4,28.2,92,30.33,10.0,Calm,Calm,-,N/A,,Clear,0,2013-11-07 12:35:00
6:55 AM,30.4,28.0,91,30.34,10.0,Calm,Calm,-,N/A,,Clear,0,2013-11-07 12:55:00
7:15 AM,31.1,28.9,92,30.35,10.0,Calm,Calm,-,N/A,,Clear,0,2013-11-07 13:15:00
7:35 AM,32.0,29.7,91,30.35,10.0,Calm,Calm,-,N/A,,Clear,0,2013-11-07 13:35:00
7:55 AM,33.1,30.6,90,30.35,10.0,Calm,Calm,-,N/A,,Scattered Clouds,0,2013-11-07 13:55:00
8:15 AM,34.5,31.6,89,30.35,10.0,SW,5.8,-,N/A,,Clear,220,2013-11-07 14:15:00
8:35 AM,36.0,32.2,86,30.35,10.0,Calm,Calm,-,N/A,,Clear,0,2013-11-07 14:35:00
8:55 AM,38.5,32.9,80,30.34,10.0,Calm,Calm,-,N/A,,Clear,0,2013-11-07 14:55:00
9:15 AM,40.3,34.0,78,30.34,10.0,Calm,Calm,-,N/A,,Clear,0,2013-11-07 15:15:00
9:35 AM,41.9,34.7,76,30.35,10.0,SW,9.2,-,N/A,,Clear,230,2013-11-07 15:35:00
9:55 AM,43.7,35.1,72,30.34,10.0,SW,6.9,-,N/A,,Clear,230,2013-11-07 15:55:00
10:15 AM,45.0,36.0,71,30.34,10.0,SW,12.7,-,N/A,,Clear,220,2013-11-07 16:15:00
10:35 AM,45.7,36.1,69,30.33,10.0,SW,16.1,-,N/A,,Clear,230,2013-11-07 16:35:00
10:55 AM,46.6,36.9,69,30.33,10.0,SW,12.7,17.3,N/A,,Clear,230,2013-11-07 16:55:00
11:15 AM,48.0,36.7,65,30.32,10.0,SW,13.8,-,N/A,,Clear,230,2013-11-07 17:15:00
11:35 AM,49.3,36.5,61,30.31,10.0,SW,15.0,-,N/A,,Clear,230,2013-11-07 17:35:00
11:55 AM,50.2,37.0,61,30.30,10.0,WSW,11.5,19.6,N/A,,Clear,250,2013-11-07 17:55:00
12:15 PM,50.9,35.6,56,30.29,10.0,WSW,17.3,-,N/A,,Clear,240,2013-11-07 18:15:00
12:35 PM,50.9,36.0,57,30.28,10.0,WSW,11.5,19.6,N/A,,Clear,250,2013-11-07 18:35:00
12:55 PM,51.8,35.1,53,30.28,10.0,West,13.8,19.6,N/A,,Clear,280,2013-11-07 18:55:00
1:15 PM,52.3,33.8,49,30.28,10.0,West,11.5,19.6,N/A,,Clear,270,2013-11-07 19:15:00
1:35 PM,52.7,32.7,47,30.27,10.0,West,13.8,-,N/A,,Clear,270,2013-11-07 19:35:00
1:55 PM,53.4,32.4,45,30.27,10.0,WNW,15.0,21.9,N/A,,Scattered Clouds,290,2013-11-07 19:55:00
2:15 PM,52.7,30.7,43,30.27,10.0,West,19.6,24.2,N/A,,Scattered Clouds,280,2013-11-07 20:15:00
2:35 PM,52.7,29.7,41,30.27,10.0,WNW,17.3,24.2,N/A,,Clear,290,2013-11-07 20:35:00
2:55 PM,52.3,30.2,43,30.27,10.0,WNW,17.3,21.9,N/A,,Clear,290,2013-11-07 20:55:00
3:15 PM,52.2,29.5,42,30.27,10.0,WNW,15.0,21.9,N/A,,Scattered Clouds,300,2013-11-07 21:15:00
3:35 PM,51.4,28.2,41,30.28,10.0,WNW,15.0,23.0,N/A,,Clear,300,2013-11-07 21:35:00
3:55 PM,50.9,28.0,41,30.28,10.0,WNW,8.1,20.7,N/A,,Clear,300,2013-11-07 21:55:00
4:55 PM,46.0,30.4,54,30.30,10.0,Calm,Calm,-,N/A,,Clear,0,2013-11-07 22:55:00
5:15 PM,43.7,30.6,60,30.30,10.0,Calm,Calm,-,N/A,,Clear,0,2013-11-07 23:15:00
5:35 PM,42.8,29.8,60,30.30,10.0,Calm,Calm,-,N/A,,Clear,0,2013-11-07 23:35:00
5:55 PM,41.5,29.8,63,30.31,10.0,Calm,Calm,-,N/A,,Clear,0,2013-11-07 23:55:00
6:15 PM,39.9,29.8,67,30.31,10.0,Calm,Calm,-,N/A,,Clear,0,2013-11-08 00:15:00
6:35 PM,38.7,29.3,69,30.31,10.0,Calm,Calm,-,N/A,,Clear,0,2013-11-08 00:35:00
6:55 PM,38.8,30.6,72,30.31,10.0,Calm,Calm,-,N/A,,Clear,0,2013-11-08 00:55:00
7:15 PM,37.4,30.9,77,30.31,10.0,Calm,Calm,-,N/A,,Clear,0,2013-11-08 01:15:00
7:35 PM,36.0,30.9,82,30.32,10.0,Calm,Calm,-,N/A,,Clear,0,2013-11-08 01:35:00
7:55 PM,35.4,30.9,84,30.32,10.0,Calm,Calm,-,N/A,,Clear,0,2013-11-08 01:55:00
8:15 PM,34.9,30.7,85,30.32,10.0,Calm,Calm,-,N/A,,Clear,0,2013-11-08 02:15:00
8:35 PM,34.2,30.6,87,30.32,10.0,Calm,Calm,-,N/A,,Clear,0,2013-11-08 02:35:00
8:55 PM,33.8,30.6,88,30.33,10.0,Calm,Calm,-,N/A,,Clear,0,2013-11-08 02:55:00
9:15 PM,33.4,30.4,89,30.33,10.0,Calm,Calm,-,N/A,,Clear,0,2013-11-08 03:15:00
9:35 PM,33.6,30.6,89,30.32,10.0,Calm,Calm,-,N/A,,Clear,0,2013-11-08 03:35:00
9:55 PM,33.3,30.2,89,30.33,10.0,Calm,Calm,-,N/A,,Clear,0,2013-11-08 03:55:00
10:15 PM,32.9,29.3,87,30.33,10.0,Calm,Calm,-,N/A,,Clear,0,2013-11-08 04:15:00
10:35 PM,33.1,29.8,88,30.33,10.0,Calm,Calm,-,N/A,,Clear,0,2013-11-08 04:35:00
10:55 PM,32.5,29.3,88,30.33,10.0,Calm,Calm,-,N/A,,Clear,0,2013-11-08 04:55:00
11:15 PM,32.0,29.1,89,30.33,10.0,Calm,Calm,-,N/A,,Clear,0,2013-11-08 05:15:00
11:35 PM,32.0,29.3,90,30.33,10.0,Calm,Calm,-,N/A,,Clear,0,2013-11-08 05:35:00
11:55 PM,32.0,28.2,86,30.33,10.0,Calm,Calm,-,N/A,,Clear,0,2013-11-08 05:55:00